Change the Weather History Date:

Monday, December 5, 2011

  Actual Average Record
Temperature  
Mean Temperature 48 °F 38 °F  
Max Temperature 60 °F 46 °F 68 °F (2001)
Min Temperature 36 °F 30 °F 4 °F (1926)
Degree Days  
Heating Degree Days 17 27  
Month to date heating degree days 114 132  
Since 1 July heating degree days 955 1207  
Cooling Degree Days 0 0  
Month to date cooling degree days 0 0  
Year to date cooling degree days 921 744  
Moisture  
Dew Point 44 °F    
Average Humidity 86    
Maximum Humidity 100    
Minimum Humidity 72    
Precipitation  
Precipitation 0.00 in 0.15 in 2.86 in (1993)
Month to date precipitation 0.00 0.77  
Year to date precipitation 52.76 43.73  
Snow  
Snow 0.00 in 0.20 in 6.00 in (2002)
Month to date snowfall 0.0 1.0  
Since 1 July snowfall 2.3 2.5  
Snow Depth 0.00 in    
Sea Level Pressure  
Sea Level Pressure 30.35 in    
Wind  
Wind Speed 5 mph (South)    
Max Wind Speed 12 mph    
Max Gust Speed 13 mph    
Visibility 3 miles    
Events Fog    
T = Trace of Precipitation, MM = Missing Value Source: NWS Daily Summary

Daily Weather History Graph

Daily Weather History Graph

Search for Another Location

Airport or City:

Trip Planner

Search our weather history database for the weather conditions in past years. The results will help you decide how hot, cold, wet, or windy it might be!

Date:

Astronomy

Dec. 05, 2011 Rise Set
Actual Time 6:57 AM EST 4:15 PM EST
Civil Twilight 6:25 AM EST 4:46 PM EST
Nautical Twilight 5:51 AM EST 5:21 PM EST
Astronomical Twilight 5:17 AM EST 5:54 PM EST
Moon 1:14 PM EST (12/5) 2:13 AM EST (12/5)
Length of Visible Light 10h 20m
Length of Day
9h 18m
Waxing Gibbous, 79% of the Moon is Illuminated
Dec 5
Waxing Gibbous
Dec 10
Full
Dec 17
Last Quarter
Dec 24
New
Jan 1
First Quarter

Hourly Weather History & Observations

Time (EST) Temp. Windchill Dew Point Humidity Pressure Visibility Wind Dir Wind Speed Gust Speed Precip Events Conditions
12:00 AM 42.8 °F - 42.8 °F 100% 30.42 in 0.2 mi Calm Calm - N/A Fog Fog
12:16 AM 42.8 °F 41.1 °F 42.8 °F 100% 30.42 in 0.2 mi South 3.5 mph - N/A Fog Fog
12:51 AM 39.9 °F - 39.9 °F 100% 30.41 in 0.2 mi Calm Calm - N/A Fog Fog
12:59 AM 39.2 °F - 39.2 °F 100% 30.41 in 0.2 mi Calm Calm - N/A Fog Fog
1:32 AM 37.4 °F 33.8 °F 37.4 °F 100% 30.40 in 0.5 mi SSW 4.6 mph - N/A Fog Fog
1:37 AM 37.4 °F 33.8 °F 37.4 °F 100% 30.40 in 0.2 mi SSW 4.6 mph - N/A Fog Fog
1:49 AM 37.4 °F 34.9 °F 37.4 °F 100% 30.40 in 0.2 mi SSW 3.5 mph - N/A Fog Fog
1:51 AM 37.0 °F - 37.0 °F 100% 30.40 in 0.2 mi Calm Calm - N/A Fog Fog
2:02 AM 39.2 °F - 37.4 °F 93% 30.39 in 0.8 mi Calm Calm - N/A   Overcast
2:07 AM 39.2 °F - 37.4 °F 93% 30.39 in 0.2 mi Calm Calm - N/A Fog Fog
2:17 AM 37.4 °F - 37.4 °F 100% 30.39 in 0.2 mi Calm Calm - N/A Fog Fog
2:28 AM 37.4 °F - 37.4 °F 100% 30.39 in 0.2 mi Calm Calm - N/A Fog Fog
2:37 AM 37.4 °F - 37.4 °F 100% 30.39 in 0.5 mi Calm Calm - N/A Fog Fog
2:51 AM 37.9 °F - 37.0 °F 97% 30.39 in 0.8 mi Calm Calm - N/A   Overcast
3:04 AM 37.4 °F - 35.6 °F 93% 30.39 in 0.2 mi Calm Calm - N/A Fog Fog
3:09 AM 39.2 °F - 37.4 °F 93% 30.39 in 0.5 mi Calm Calm - N/A Fog Fog
3:15 AM 37.4 °F - 37.4 °F 100% 30.39 in 2.0 mi Calm Calm - N/A   Overcast
3:22 AM 37.4 °F - 37.4 °F 100% 30.38 in 5.0 mi Calm Calm - N/A   Overcast
3:42 AM 37.4 °F - 35.6 °F 93% 30.37 in 0.8 mi Calm Calm - N/A   Overcast
3:51 AM 37.0 °F - 37.0 °F 100% 30.37 in 0.2 mi Calm Calm - N/A Fog Fog
4:04 AM 37.4 °F - 37.4 °F 100% 30.37 in 0.2 mi Calm Calm - N/A Fog Fog
4:47 AM 37.4 °F - 37.4 °F 100% 30.36 in 0.2 mi Calm Calm - N/A Fog Fog
4:51 AM 37.9 °F - 37.9 °F 100% 30.36 in 0.2 mi Calm Calm - N/A Fog Fog
5:11 AM 41.0 °F - 39.2 °F 93% 30.37 in 0.2 mi Calm Calm - N/A Fog Fog
5:19 AM 41.0 °F - 41.0 °F 100% 30.37 in 0.5 mi Calm Calm - N/A Fog Fog
5:46 AM 42.8 °F - 41.0 °F 93% 30.37 in 2.0 mi Calm Calm - N/A   Overcast
5:47 AM 42.1 °F - 41.0 °F 96% 30.38 in 2.5 mi Calm Calm - N/A   Overcast
5:55 AM 42.8 °F - 41.0 °F 93% 30.37 in 3.0 mi Calm Calm - N/A   Overcast
6:35 AM 44.6 °F - 44.6 °F 100% 30.37 in 5.0 mi Calm Calm - N/A   Overcast
6:51 AM 45.0 °F - 44.1 °F 97% 30.38 in 6.0 mi Calm Calm - N/A   Overcast
7:51 AM 51.8 °F - 50.0 °F 94% 30.38 in 10.0 mi SW 5.8 mph - N/A   Overcast
8:42 AM 53.6 °F - 51.8 °F 94% 30.38 in 10.0 mi SW 5.8 mph - N/A   Partly Cloudy
8:51 AM 54.0 °F - 51.1 °F 90% 30.38 in 10.0 mi SW 5.8 mph - N/A   Mostly Cloudy
9:51 AM 57.0 °F - 52.0 °F 83% 30.38 in 10.0 mi Variable 6.9 mph - N/A   Mostly Cloudy
10:51 AM 57.9 °F - 51.1 °F 78% 30.38 in 10.0 mi SW 11.5 mph - N/A   Unknown
11:51 AM 60.1 °F - 51.1 °F 72% 30.34 in 10.0 mi South 9.2 mph - N/A   Clear
12:51 PM 60.1 °F - 51.1 °F 72% 30.34 in 10.0 mi South 9.2 mph - N/A   Clear
1:51 PM 59.0 °F - 51.1 °F 75% 30.32 in 10.0 mi South 11.5 mph - N/A   Clear
2:51 PM 57.0 °F - 50.0 °F 77% 30.30 in 10.0 mi South 9.2 mph - N/A   Scattered Clouds
3:51 PM 55.9 °F - 48.9 °F 77% 30.30 in 10.0 mi South 8.1 mph - N/A   Mostly Cloudy
4:51 PM 50.0 °F - 48.9 °F 96% 30.29 in 10.0 mi SE 5.8 mph - N/A   Scattered Clouds
5:51 PM 48.9 °F - 46.9 °F 93% 30.29 in 9.0 mi South 6.9 mph - N/A   Scattered Clouds
6:08 PM 50.0 °F - 48.2 °F 94% 30.29 in 9.0 mi SSW 5.8 mph - N/A   Scattered Clouds
6:24 PM 48.2 °F - 48.2 °F 100% 30.29 in 8.0 mi SSW 5.8 mph - N/A   Mostly Cloudy
6:51 PM 50.0 °F - 48.9 °F 96% 30.29 in 7.0 mi SSW 4.6 mph - N/A   Overcast
7:31 PM 51.8 °F - 50.0 °F 94% 30.28 in 6.0 mi South 5.8 mph - N/A   Overcast
7:51 PM 51.1 °F - 50.0 °F 96% 30.28 in 2.0 mi South 5.8 mph - N/A   Overcast
8:38 PM 50.0 °F - 48.2 °F 94% 30.28 in 1.0 mi South 4.6 mph - N/A   Overcast
8:48 PM 50.0 °F - 50.0 °F 100% 30.27 in 0.5 mi SSE 4.6 mph - N/A   Overcast
8:51 PM 51.1 °F - 50.0 °F 96% 30.27 in 0.5 mi SSE 3.5 mph - N/A   Overcast
9:16 PM 50.0 °F - 50.0 °F 100% 30.27 in 1.0 mi SSE 3.5 mph - N/A   Mist
9:30 PM 50.0 °F - 50.0 °F 100% 30.27 in 0.8 mi Calm Calm - N/A   Mist
9:51 PM 50.0 °F - 50.0 °F 100% 30.27 in 0.5 mi SSE 3.5 mph - N/A Fog Fog
10:08 PM 50.0 °F - 50.0 °F 100% 30.27 in 0.2 mi South 4.6 mph - N/A Fog Fog
10:51 PM 50.0 °F - 50.0 °F 100% 30.27 in 0.2 mi South 3.5 mph - N/A Fog Fog
11:09 PM 50.0 °F - 50.0 °F 100% 30.25 in 0.2 mi South 3.5 mph - N/A Fog Fog
11:16 PM 50.0 °F - 50.0 °F 100% 30.25 in 0.5 mi SSE 4.6 mph - N/A Fog Fog
11:51 PM 50.0 °F - 50.0 °F 100% 30.24 in 0.8 mi SSE 5.8 mph - N/A   Mist